Simultaneous Nadir Overpasses (SNOs) Predictions

Prediction of SNOs between GOES-14 and AQUA Satellite Orbit:

Table of predicted SNOs for the next 14.0 days since TLE Epoch: 5/22/2021
Index Date Time (GOES-14) GOES-14 Lat,Lon AQUA Lat,Lon Distance(km) Time Diff (sec)
1 05/23/2021 08:17:14 0.11,-104.15 -0.72,-100.22 447.00 80
2 05/23/2021 20:38:39 -0.09,-104.32 -0.34,-105.42 125.10 80
3 05/25/2021 20:23:47 -0.09,-104.32 0.28,-102.46 210.85 80
4 05/26/2021 08:45:01 0.07,-104.14 0.84,-107.61 395.88 80
5 05/28/2021 08:32:50 0.07,-104.13 0.16,-104.66 59.99 80
6 05/30/2021 08:23:18 0.08,-104.13 -0.46,-101.70 276.03 80
7 05/30/2021 20:44:43 -0.05,-104.32 -0.58,-106.91 294.06 80
8 06/01/2021 20:32:31 -0.06,-104.32 0.05,-103.95 42.61 80
9 06/03/2021 20:17:38 -0.07,-104.32 0.62,-100.98 379.47 80
10 06/04/2021 08:38:54 0.05,-104.12 0.45,-106.14 228.75 80
